Bar Harbor, ME

8:15 AM EDT on October 15, 2019 (GMT -0400)
Hancock County-Bar Harbor

Weather History for KBHB - August, 2019

Change the Weather History Date:

Monday, August 19, 2019

  Actual Average Record
Temperature  
Mean Temperature 66 °F -  
Max Temperature 73 °F 78 °F 87 °F (2002)
Min Temperature 59 °F 54 °F 46 °F (2005)
Cooling Degree Days 1    
Growing Degree Days 16 (Base 50)    
Moisture  
Dew Point 64 °F    
Average Humidity 97    
Maximum Humidity 100    
Minimum Humidity 87    
Precipitation  
Precipitation 0.02 in - - ()
Sea Level Pressure  
Sea Level Pressure 29.95 in    
Wind  
Wind Speed 4 mph (SSE)    
Max Wind Speed 15 mph    
Max Gust Speed 18 mph    
Visibility 5 miles    
Events Fog , Rain    
Averages and records for this station are not official NWS values.
T = Trace of Precipitation, MM = Missing Value Source: NWS Daily Summary

Daily Weather History Graph

Daily Weather History Graph

Search for Another Location

Airport or City:

Astronomy

Aug. 19, 2019 Rise Set
Actual Time 5:40 AM EDT 7:32 PM EDT
Civil Twilight 5:09 AM EDT 8:03 PM EDT
Nautical Twilight 4:31 AM EDT 8:41 PM EDT
Astronomical Twilight 3:49 AM EDT 9:23 PM EDT
Moon 9:43 PM EDT (8/19) 9:26 AM EDT (8/19)
Length of Visible Light 14h 54m
Length of Day
13h 51m
Waning Gibbous, 85% of the Moon is Illuminated
Aug 19
Waning Gibbous
Aug 23
Last Quarter
Aug 30
New
Sep 5
First Quarter
Sep 14
Full

Hourly Weather History & Observations

Time (EDT) Temp. Dew Point Humidity Pressure Visibility Wind Dir Wind Speed Gust Speed Precip Events Conditions
12:11 AM 60.8 °F 60.8 °F 100% 30.02 in 0.5 mi ESE 3.5 mph - N/A Fog Fog
12:33 AM 60.8 °F 60.8 °F 100% 30.01 in 0.2 mi ESE 3.5 mph - N/A Fog Fog
12:56 AM 61.0 °F 61.0 °F 100% 30.01 in 0.2 mi East 3.5 mph - N/A Fog Fog
1:56 AM 60.1 °F 60.1 °F 100% 30.01 in 0.8 mi East 5.8 mph - N/A   Overcast
1:58 AM 60.8 °F 60.8 °F 100% 30.00 in 1.2 mi East 4.6 mph - N/A   Overcast
2:02 AM 60.8 °F 60.8 °F 100% 30.00 in 3.0 mi East 3.5 mph - N/A   Overcast
2:54 AM 60.8 °F 60.8 °F 100% 30.00 in 1.8 mi Calm Calm - N/A   Overcast
2:56 AM 61.0 °F 61.0 °F 100% 30.01 in 1.2 mi Calm Calm - N/A   Overcast
2:59 AM 60.8 °F 60.8 °F 100% 30.00 in 0.8 mi Calm Calm - N/A   Overcast
3:12 AM 60.8 °F 60.8 °F 100% 30.00 in 0.2 mi Calm Calm - N/A Fog Fog
3:56 AM 61.0 °F 61.0 °F 100% 29.99 in 0.2 mi Calm Calm - N/A Fog Fog
4:56 AM 59.0 °F 59.0 °F 100% 30.00 in 0.2 mi Calm Calm - N/A Fog Fog
5:09 AM 60.8 °F 59.0 °F 94% 29.99 in 0.8 mi ENE 3.5 mph - 0.00 in Rain Light Rain
5:17 AM 60.8 °F 59.0 °F 94% 29.99 in 1.2 mi Calm Calm - 0.00 in Rain Light Rain
5:26 AM 60.8 °F 59.0 °F 94% 29.99 in 3.0 mi East 4.6 mph - 0.00 in Rain Light Rain
5:56 AM 60.1 °F 60.1 °F 100% 29.99 in 10.0 mi NNE 3.5 mph - 0.01 in Rain Light Rain
6:56 AM 60.1 °F 60.1 °F 100% 30.00 in 10.0 mi East 4.6 mph - 0.00 in   Overcast
7:56 AM 60.1 °F 60.1 °F 100% 29.99 in 10.0 mi East 4.6 mph - 0.00 in Rain Light Rain
8:56 AM 60.1 °F 60.1 °F 100% 29.99 in 10.0 mi East 5.8 mph - 0.00 in Rain Light Rain
9:56 AM 63.0 °F 62.1 °F 97% 29.98 in 10.0 mi East 6.9 mph - 0.00 in   Overcast
10:56 AM 64.0 °F 63.0 °F 96% 29.97 in 10.0 mi East 3.5 mph - N/A   Overcast
11:21 AM 66.2 °F 64.4 °F 94% 29.96 in 10.0 mi East 3.5 mph - N/A   Overcast
11:56 AM 66.9 °F 64.9 °F 93% 29.96 in 10.0 mi ESE 3.5 mph - N/A   Overcast
12:56 PM 70.0 °F 66.9 °F 90% 29.95 in 10.0 mi South 6.9 mph - N/A   Overcast
1:56 PM 72.0 °F 69.1 °F 91% 29.93 in 10.0 mi South 12.7 mph - N/A   Overcast
2:56 PM 73.0 °F 69.1 °F 87% 29.91 in 10.0 mi SSW 10.4 mph - N/A   Scattered Clouds
3:56 PM 71.1 °F 69.1 °F 93% 29.88 in 10.0 mi South 15.0 mph 18.4 mph N/A   Overcast
4:56 PM 70.0 °F 69.1 °F 97% 29.88 in 2.5 mi SSW 12.7 mph - N/A   Overcast
5:09 PM 69.8 °F 68.0 °F 94% 29.88 in 4.0 mi SSW 12.7 mph - N/A   Overcast
5:56 PM 68.0 °F 68.0 °F 100% 29.88 in 4.0 mi SSW 8.1 mph - N/A   Overcast
6:56 PM 68.0 °F 66.9 °F 96% 29.88 in 8.0 mi SSW 5.8 mph - N/A   Scattered Clouds
7:56 PM 69.1 °F 68.0 °F 96% 29.88 in 10.0 mi SW 5.8 mph - 0.00 in Rain Light Rain
8:56 PM 68.0 °F 66.9 °F 96% 29.90 in 8.0 mi WSW 3.5 mph - 0.01 in   Clear
9:53 PM 68.0 °F 66.2 °F 94% 29.90 in 8.0 mi SW 6.9 mph - N/A   Scattered Clouds
9:56 PM 68.0 °F 66.9 °F 96% 29.90 in 8.0 mi SSW 8.1 mph - N/A   Scattered Clouds
10:14 PM 66.2 °F 66.2 °F 100% 29.90 in 4.0 mi SW 3.5 mph - N/A   Mostly Cloudy
10:20 PM 66.2 °F 66.2 °F 100% 29.90 in 1.8 mi SW 3.5 mph - N/A   Overcast
10:28 PM 66.2 °F 66.2 °F 100% 29.90 in 0.8 mi SSW 5.8 mph - N/A   Overcast
10:38 PM 66.2 °F 66.2 °F 100% 29.90 in 0.2 mi SSW 6.9 mph - N/A Fog Fog
10:56 PM 66.0 °F 66.0 °F 100% 29.91 in 0.2 mi SW 3.5 mph - N/A Fog Fog
11:56 PM 64.9 °F 64.9 °F 100% 29.91 in 0.2 mi SSW 4.6 mph - N/A Fog Fog